Wind_Speed
27 27 27 27 27 27 26 26 25 25 24 23 23 22 21 19 19 18 17 17 17 17 17 17 18 18 18 19 19 19 19 19 20 19 19 20 20 20 21 21 21 22 23
26 26 25 25 25 24 24 23 22 21 21 20 19 19 18 17 17 17 17 16 16 17 17 17 17 16 16 16 16 15 16 17 17 16 16 17 18 18 19 20 20 21 22
23 23 22 22 22 22 22 20 19 19 19 18 17 16 16 15 16 16 15 15 15 15 15 15 14 14 14 14 13 12 13 14 15 16 16 16 17 17 18 17 18 19 21
20 20 20 20 20 20 19 18 17 17 16 16 15 14 14 15 15 15 15 15 15 14 14 13 13 13 13 12 11 11 11 12 12 14 15 16 16 16 16 16 16 17 18
17 17 17 17 17 17 16 16 15 14 14 14 13 13 14 14 15 15 15 14 14 13 13 12 12 12 12 11 10 11 11 10 11 12 12 14 14 14 14 14 15 15 16
15 15 15 15 15 14 14 13 13 13 13 13 12 13 13 14 15 15 15 13 13 12 11 11 10 10 10 11 10 9 9 9 9 9 9 10 10 11 12 12 12 12 13
13 13 13 14 13 13 12 12 13 13 13 12 12 12 13 14 14 14 13 13 12 11 10 9 10 10 10 9 9 8 8 8 7 6 6 7 9 9 9 10 11 12 12
12 12 13 13 12 12 13 13 13 13 13 13 12 12 13 14 13 13 13 12 11 10 9 9 9 8 8 8 8 8 8 7 6 5 5 6 7 7 7 8 9 9 10
12 12 12 12 12 13 13 13 12 13 12 11 11 12 13 13 13 13 12 12 11 10 8 8 8 8 8 8 7 7 6 6 5 5 4 4 5 5 6 8 8 9 9
11 11 11 11 12 12 12 12 12 13 12 12 13 13 13 12 13 13 12 11 10 9 9 8 8 7 7 7 8 7 6 6 6 5 5 5 5 6 7 8 8 9 10
10 11 11 11 11 11 11 11 12 12 12 12 13 13 14 13 13 13 12 11 10 9 8 8 8 8 8 8 8 7 8 7 7 7 7 7 7 7 7 8 9 10 11
10 9 10 10 11 11 11 11 12 12 11 11 12 13 13 13 13 11 11 10 10 10 9 8 8 8 8 8 8 8 8 8 8 8 9 8 8 8 9 9 9 10 10
9 9 9 10 10 10 10 11 11 11 11 11 12 12 12 12 12 11 10 10 10 10 9 8 8 8 8 8 8 8 8 8 7 8 8 8 9 9 10 10 10 10 10
8 8 9 9 9 10 10 10 11 11 11 12 12 12 12 12 12 11 11 11 10 10 10 9 9 9 9 9 8 8 8 8 8 8 8 9 9 9 9 9 10 11 11
7 7 8 9 9 9 10 10 10 11 11 12 12 12 12 12 12 12 12 11 11 11 10 10 11 10 9 8 8 8 8 7 8 8 9 9 9 10 11 11 12 13 14
7 7 8 9 9 10 10 10 10 11 11 12 12 12 12 12 12 12 12 12 11 11 11 11 11 10 10 8 8 8 8 8 9 9 9 10 11 11 12 13 14 14 15
8 8 8 9 9 10 10 10 11 11 11 12 12 13 13 13 13 13 13 12 12 12 12 11 11 11 10 9 9 9 9 10 11 11 11 11 13 13 14 14 14 15 16
8 8 9 9 10 10 10 10 11 11 12 12 13 13 13 14 14 14 13 13 13 12 12 12 12 12 11 11 11 11 11 12 12 13 13 14 14 15 15 15 16 16 17
8 8 9 10 10 10 10 11 11 12 13 13 13 14 14 14 15 15 15 14 13 13 13 13 13 14 13 13 13 14 14 14 14 15 15 15 16 17 17 18 19 19 19
8 8 9 10 10 10 10 11 12 13 14 14 15 15 15 15 16 16 15 15 14 14 14 14 15 15 16 16 16 16 16 17 17 17 18 18 19 19 20 20 21 21 21
8 9 10 10 11 11 12 13 13 14 15 15 16 16 16 16 16 16 16 15 15 15 16 16 17 17 18 18 18 19 19 20 20 20 21 22 23 23 22 23 23 23 23
8 9 10 10 11 12 13 14 15 15 16 16 17 17 17 17 18 18 17 17 17 17 18 18 19 20 20 20 21 21 21 22 22 23 23 24 25 25 26 26 26 26 26
9 9 10 11 12 13 14 15 16 16 16 17 17 18 18 18 18 19 19 19 19 19 20 21 22 22 22 23 23 24 24 24 24 24 25 25 26 26 26 26 27 27 27
9 10 11 12 13 14 15 16 16 16 17 17 18 19 19 20 20 20 20 21 21 22 23 22 22 23 24 25 25 25 25 25 26 27 27 27 27 27 28 28 28 28 28
10 11 12 13 14 15 16 16 17 18 19 19 20 21 21 22 22 22 22 23 23 24 24 24 24 24 26 26 27 27 27 28 28 28 28 29 29 29 29 29 30 30 30
11 12 13 14 15 16 17 17 18 19 20 21 22 23 23 23 24 25 25 26 27 27 26 26 26 27 28 28 28 28 28 28 29 30 30 31 31 31 31 31 31 32 32
Wind_Direction
299 300 300 300 300 300 302 301 302 302 302 302 302 302 302 301 300 299 298 296 297 298 298 296 293 290 285 284 284 278 272 270 269 267 266 265 263 259 256 257 257 257 256
300 301 301 302 303 303 304 305 304 304 305 305 304 304 304 303 303 302 300 300 299 299 298 298 297 294 290 287 285 279 274 273 267 263 263 262 263 262 260 260 258 256 256
301 302 302 304 306 308 308 306 305 306 308 308 307 308 308 308 307 307 303 303 302 301 301 300 299 297 294 292 286 282 278 273 266 261 263 263 262 262 263 263 260 258 257
303 303 303 305 307 311 310 308 306 308 312 313 312 311 312 313 311 309 308 306 305 303 305 302 300 298 297 295 291 291 286 278 268 264 264 265 265 263 262 262 260 260 259
308 307 307 310 312 314 315 312 310 310 313 315 315 313 315 317 316 315 313 312 309 306 306 304 303 302 301 294 289 292 291 284 275 271 270 267 265 263 263 262 260 261 260
313 314 315 320 323 322 320 314 312 314 315 317 318 319 320 322 320 321 321 317 313 309 306 304 300 299 301 294 291 288 287 287 281 274 276 273 266 263 265 264 263 264 264
313 317 323 329 331 329 326 325 322 324 325 324 322 322 325 326 324 326 324 322 319 315 308 302 297 295 298 297 291 296 295 292 284 274 276 275 272 268 267 264 263 261 260
317 322 326 328 333 334 331 331 332 331 328 330 329 328 326 326 326 326 327 324 324 321 311 306 304 301 300 300 296 299 301 294 287 279 285 280 279 275 271 264 262 261 260
319 326 327 330 332 334 331 332 334 336 337 336 334 334 332 329 329 331 333 333 330 327 322 316 311 302 301 304 303 298 298 295 293 291 293 284 291 290 275 264 262 263 262
317 322 324 328 332 335 336 336 337 338 339 340 342 340 338 337 337 337 338 338 334 329 324 321 318 309 303 306 308 302 297 297 295 293 289 283 289 291 287 277 270 267 264
316 318 322 327 329 333 336 336 334 336 339 341 342 341 339 340 340 339 339 337 340 337 331 327 322 317 312 312 313 305 298 290 285 284 280 279 282 285 291 292 279 275 271
321 323 327 330 333 334 335 337 339 339 338 339 341 343 344 344 343 343 346 345 343 344 340 335 330 323 318 316 316 312 302 294 284 282 283 281 281 283 285 288 288 282 275
324 327 330 334 336 338 339 342 344 346 346 345 345 347 348 349 349 352 353 353 353 351 349 343 337 330 322 319 316 310 305 300 291 289 289 283 284 286 285 286 288 286 284
331 330 333 338 340 343 344 346 348 349 350 350 349 347 347 348 351 354 354 353 351 349 348 346 341 335 327 319 315 312 306 301 295 290 291 288 286 289 289 287 287 286 285
341 342 340 343 344 347 351 350 351 353 352 351 349 349 349 349 351 352 350 348 346 343 341 341 339 336 333 329 323 317 312 305 303 301 296 293 291 292 292 290 286 285 285
348 347 350 351 354 354 353 353 353 352 351 351 352 351 351 350 350 349 348 347 345 343 341 339 339 337 336 331 328 323 314 307 307 309 305 299 297 295 293 290 288 287 286
355 353 353 355 356 355 351 353 353 352 352 353 352 351 351 350 347 345 345 345 342 341 340 336 334 332 330 329 323 319 313 307 305 304 302 299 298 298 297 294 293 291 289
357 354 353 352 351 351 351 352 352 352 352 350 349 348 347 346 344 343 342 340 339 336 334 334 334 332 328 325 323 318 311 306 306 305 303 302 300 299 297 297 297 294 292
356 354 354 352 352 353 352 351 351 349 347 347 346 344 343 343 341 340 339 337 334 332 329 329 330 328 325 321 318 314 311 307 304 303 303 301 301 302 301 299 299 297 295
356 354 352 352 353 352 349 348 347 346 346 346 344 343 342 341 339 337 336 334 332 331 329 327 327 325 323 320 318 316 314 311 306 302 302 302 302 302 301 300 299 297 295
357 357 356 355 356 354 351 347 344 342 341 341 341 340 338 336 337 336 335 333 331 330 327 325 324 321 318 315 314 311 310 309 307 304 300 299 299 299 299 299 299 295 293
352 355 356 356 353 350 348 345 345 343 341 340 339 339 337 334 333 332 331 329 327 325 324 321 319 317 316 314 311 311 310 309 308 306 302 301 300 298 297 295 295 295 293
345 348 349 347 345 344 343 342 342 341 340 339 339 337 336 335 333 331 330 327 325 323 320 318 317 315 313 311 310 309 308 308 306 304 303 301 299 298 297 296 294 293 292
341 341 342 341 341 340 341 342 343 342 341 340 338 337 335 333 331 329 327 324 322 319 316 314 313 313 311 310 308 307 306 305 304 303 302 301 299 298 297 296 295 293 292
341 341 341 340 339 339 340 340 340 340 339 338 336 335 334 331 328 326 325 323 321 318 316 314 313 311 309 310 307 305 304 303 304 304 302 301 300 299 297 297 296 295 293
340 339 339 338 338 338 339 339 338 337 336 334 334 333 332 329 326 324 323 322 321 319 316 313 311 311 310 309 308 307 306 305 304 303 302 301 301 301 299 297 296 296 295
Height
5784 5782 5779 5776 5773 5770 5767 5765 5762 5759 5757 5754 5752 5749 5747 5745 5743 5742 5740 5739 5738 5736 5735 5734 5733 5731 5731 5730 5729 5729 5729 5729 5730 5731 5731 5733 5734 5736 5737 5738 5740 5743 5745
5778 5776 5773 5770 5768 5765 5762 5760 5757 5755 5752 5750 5747 5745 5743 5741 5739 5737 5736 5735 5733 5732 5731 5730 5728 5727 5726 5725 5724 5724 5724 5724 5724 5725 5726 5727 5728 5730 5731 5732 5734 5735 5738
5773 5771 5768 5766 5763 5760 5757 5755 5753 5750 5748 5745 5743 5741 5739 5737 5735 5733 5732 5730 5729 5727 5726 5725 5724 5723 5722 5721 5721 5720 5720 5719 5720 5720 5720 5721 5723 5724 5725 5726 5727 5729 5731
5769 5767 5764 5762 5759 5756 5753 5751 5748 5746 5744 5742 5740 5738 5736 5734 5732 5730 5729 5727 5725 5724 5723 5722 5721 5720 5719 5718 5717 5717 5716 5716 5715 5716 5716 5717 5717 5718 5720 5721 5722 5723 5725
5765 5763 5761 5758 5756 5753 5750 5747 5745 5743 5742 5740 5737 5735 5733 5732 5730 5728 5725 5723 5722 5721 5720 5718 5718 5717 5716 5715 5715 5714 5713 5713 5712 5712 5713 5713 5713 5714 5715 5716 5717 5719 5720
5763 5761 5758 5756 5753 5750 5747 5745 5742 5741 5739 5737 5735 5733 5731 5729 5727 5725 5723 5720 5719 5718 5717 5716 5715 5715 5714 5713 5712 5712 5711 5710 5710 5710 5710 5710 5710 5711 5711 5713 5714 5715 5716
5760 5758 5756 5753 5750 5748 5746 5743 5741 5739 5737 5735 5733 5731 5729 5727 5725 5723 5720 5718 5717 5715 5714 5714 5713 5712 5712 5711 5711 5710 5709 5709 5708 5708 5708 5708 5708 5708 5709 5710 5711 5712 5713
5758 5756 5754 5752 5749 5747 5745 5742 5740 5738 5735 5733 5731 5730 5728 5726 5723 5721 5719 5717 5715 5714 5713 5712 5711 5711 5710 5710 5709 5709 5708 5707 5707 5706 5706 5707 5707 5707 5707 5708 5708 5709 5710
5756 5754 5752 5750 5748 5746 5743 5741 5739 5737 5734 5732 5730 5729 5727 5724 5722 5719 5717 5715 5714 5713 5711 5710 5710 5710 5709 5708 5708 5707 5707 5706 5706 5705 5705 5706 5706 5705 5705 5706 5706 5707 5707
5754 5752 5751 5749 5747 5745 5743 5740 5738 5736 5734 5732 5730 5728 5725 5723 5721 5718 5716 5714 5713 5712 5710 5709 5709 5708 5708 5707 5706 5706 5705 5705 5705 5705 5705 5705 5704 5704 5704 5704 5704 5704 5705
5753 5751 5749 5748 5746 5744 5742 5740 5738 5735 5733 5731 5729 5727 5724 5722 5720 5717 5715 5714 5712 5711 5710 5709 5708 5707 5706 5705 5705 5704 5704 5704 5704 5703 5703 5703 5703 5703 5702 5702 5702 5702 5702
5751 5750 5748 5747 5745 5743 5741 5739 5737 5735 5733 5731 5729 5726 5724 5721 5719 5717 5715 5713 5712 5710 5709 5708 5707 5706 5705 5704 5703 5703 5702 5702 5702 5702 5701 5701 5701 5701 5700 5700 5700 5699 5699
5750 5749 5747 5746 5744 5742 5741 5739 5737 5735 5732 5730 5728 5726 5724 5721 5719 5716 5715 5713 5711 5710 5709 5707 5706 5705 5704 5703 5702 5701 5700 5700 5700 5699 5699 5699 5698 5698 5698 5697 5697 5696 5696
5749 5748 5747 5745 5744 5742 5740 5738 5736 5734 5732 5730 5728 5726 5723 5721 5719 5717 5715 5713 5712 5710 5709 5707 5705 5704 5703 5702 5701 5700 5699 5698 5698 5697 5697 5696 5696 5695 5695 5695 5694 5694 5693
5749 5748 5746 5745 5743 5742 5740 5738 5736 5734 5732 5730 5728 5725 5723 5721 5719 5717 5714 5713 5711 5710 5708 5706 5705 5703 5702 5701 5700 5699 5698 5697 5696 5696 5695 5694 5693 5693 5692 5691 5691 5690 5690
5748 5747 5746 5744 5743 5741 5740 5738 5736 5734 5732 5730 5728 5725 5723 5721 5719 5716 5714 5712 5710 5709 5707 5705 5704 5702 5701 5699 5698 5697 5696 5695 5694 5693 5692 5691 5691 5690 5689 5688 5687 5686 5685
5748 5747 5746 5744 5743 5741 5740 5738 5736 5734 5732 5730 5728 5725 5723 5721 5718 5716 5714 5712 5710 5708 5706 5704 5703 5701 5700 5698 5697 5695 5694 5693 5692 5691 5689 5688 5687 5686 5685 5683 5682 5681 5680
5748 5747 5746 5745 5743 5741 5739 5737 5736 5734 5732 5730 5728 5725 5723 5720 5718 5715 5713 5711 5709 5707 5705 5703 5701 5700 5698 5696 5695 5693 5692 5690 5689 5688 5686 5685 5683 5682 5680 5679 5677 5676 5674
5748 5747 5746 5744 5743 5741 5739 5737 5735 5733 5731 5729 5727 5724 5722 5719 5717 5714 5712 5710 5708 5706 5704 5702 5700 5698 5696 5694 5692 5691 5689 5687 5686 5684 5683 5681 5679 5678 5676 5674 5672 5670 5669
5749 5747 5746 5744 5743 5741 5739 5737 5735 5733 5730 5728 5725 5723 5720 5718 5715 5713 5710 5708 5705 5703 5701 5699 5697 5695 5693 5691 5689 5687 5685 5683 5682 5680 5678 5676 5674 5672 5670 5668 5666 5664 5662
5749 5747 5746 5744 5742 5740 5738 5736 5734 5732 5729 5726 5724 5721 5718 5716 5713 5710 5708 5705 5703 5701 5698 5696 5694 5692 5690 5688 5685 5683 5681 5679 5677 5675 5672 5670 5668 5666 5664 5662 5660 5657 5656
5749 5747 5746 5744 5742 5740 5738 5735 5733 5730 5728 5725 5722 5719 5716 5714 5711 5708 5705 5702 5700 5698 5695 5692 5690 5688 5685 5683 5681 5678 5676 5674 5671 5669 5666 5664 5661 5659 5657 5655 5652 5650 5648
5748 5747 5745 5743 5741 5739 5737 5734 5732 5729 5726 5723 5720 5717 5714 5711 5708 5705 5702 5699 5697 5694 5691 5689 5686 5683 5680 5678 5675 5672 5670 5667 5665 5662 5659 5657 5654 5651 5649 5647 5644 5642 5640
5748 5746 5744 5742 5740 5738 5735 5732 5730 5727 5724 5721 5718 5714 5711 5708 5705 5702 5699 5696 5693 5690 5686 5683 5680 5677 5675 5672 5669 5665 5662 5660 5657 5654 5651 5649 5646 5643 5640 5638 5635 5633 5630
5747 5745 5743 5741 5739 5736 5734 5731 5728 5725 5722 5718 5715 5712 5708 5705 5701 5698 5694 5691 5688 5685 5681 5678 5674 5671 5668 5665 5662 5658 5655 5652 5649 5646 5643 5640 5637 5634 5631 5629 5626 5623 5621
5746 5744 5742 5740 5737 5734 5732 5729 5726 5723 5719 5716 5712 5709 5705 5701 5697 5693 5689 5686 5682 5678 5675 5671 5668 5665 5661 5658 5655 5651 5648 5644 5640 5637 5634 5631 5628 5625 5622 5619 5616 5613 5610